Time,TemperatureF,DewpointF,PressureIn,WindDirection,WindDirectionDegrees,WindSpeedMPH,WindSpeedGustMPH,Humidity,HourlyPrecipIn,Conditions,Clouds,dailyrainin,SoftwareType,DateUTC
2013-02-24 00:06:00,34.2,29.0,29.86,NE,51,9.0,10.0,81,0.00,,,0.00,weatherlink.com 1.10,2013-02-24 05:06:00,
2013-02-24 00:21:00,33.9,29.0,29.85,ENE,70,5.0,15.0,83,0.00,,,0.00,weatherlink.com 1.10,2013-02-24 05:21:00,
2013-02-24 00:37:00,33.9,29.0,29.85,ENE,65,7.0,11.0,83,0.00,,,0.00,weatherlink.com 1.10,2013-02-24 05:37:00,
2013-02-24 01:07:00,34.1,29.0,29.84,ENE,70,5.0,11.0,81,0.00,,,0.00,weatherlink.com 1.10,2013-02-24 06:07:00,
2013-02-24 01:22:00,34.3,29.0,29.83,NE,34,6.0,13.0,80,0.00,,,0.00,weatherlink.com 1.10,2013-02-24 06:22:00,
2013-02-24 01:37:00,34.6,29.0,29.83,ENE,57,10.0,16.0,80,0.00,,,0.00,weatherlink.com 1.10,2013-02-24 06:37:00,
2013-02-24 01:52:00,34.6,29.0,29.83,NE,51,8.0,8.0,80,0.00,,,0.00,weatherlink.com 1.10,2013-02-24 06:52:00,
2013-02-24 02:07:00,34.4,29.0,29.81,North,355,4.0,14.0,80,0.00,,,0.00,weatherlink.com 1.10,2013-02-24 07:07:00,
2013-02-24 02:22:00,34.5,29.0,29.81,NE,49,4.0,11.0,80,0.00,,,0.00,weatherlink.com 1.10,2013-02-24 07:22:00,
2013-02-24 02:39:00,34.6,29.0,29.80,ENE,60,9.0,14.0,79,0.00,,,0.00,weatherlink.com 1.10,2013-02-24 07:39:00,
2013-02-24 02:52:00,34.7,29.0,29.80,NW,312,2.0,10.0,80,0.00,,,0.00,weatherlink.com 1.10,2013-02-24 07:52:00,
2013-02-24 03:07:00,34.9,29.0,29.79,NE,56,4.0,11.0,79,0.00,,,0.00,weatherlink.com 1.10,2013-02-24 08:07:00,
2013-02-24 03:22:00,35.0,29.0,29.79,NE,34,5.0,9.0,79,0.00,,,0.00,weatherlink.com 1.10,2013-02-24 08:22:00,
2013-02-24 03:37:00,35.3,29.0,29.79,NNE,32,6.0,11.0,78,0.00,,,0.00,weatherlink.com 1.10,2013-02-24 08:37:00,
2013-02-24 03:52:00,35.2,29.0,29.78,NE,51,4.0,9.0,79,0.00,,,0.00,weatherlink.com 1.10,2013-02-24 08:52:00,
2013-02-24 04:07:00,35.1,29.0,29.78,NE,55,6.0,13.0,79,0.00,,,0.00,weatherlink.com 1.10,2013-02-24 09:07:00,
2013-02-24 04:22:00,35.1,29.0,29.78,NE,40,6.0,9.0,79,0.00,,,0.00,weatherlink.com 1.10,2013-02-24 09:22:00,
2013-02-24 04:37:00,35.0,29.0,29.79,NE,46,4.0,9.0,80,0.00,,,0.00,weatherlink.com 1.10,2013-02-24 09:37:00,
2013-02-24 04:52:00,35.1,30.0,29.79,NE,51,5.0,12.0,80,0.00,,,0.00,weatherlink.com 1.10,2013-02-24 09:52:00,
2013-02-24 05:07:00,35.0,30.0,29.79,NE,55,3.0,11.0,81,0.00,,,0.00,weatherlink.com 1.10,2013-02-24 10:07:00,
2013-02-24 05:22:00,34.8,30.0,29.79,ENE,67,0.0,3.0,82,0.00,,,0.00,weatherlink.com 1.10,2013-02-24 10:22:00,
2013-02-24 05:37:00,35.0,30.0,29.79,NNE,31,0.0,5.0,82,0.00,,,0.00,weatherlink.com 1.10,2013-02-24 10:37:00,
2013-02-24 05:52:00,35.0,31.0,29.79,ENE,63,1.0,4.0,84,0.00,,,0.00,weatherlink.com 1.10,2013-02-24 10:52:00,
2013-02-24 06:07:00,34.6,31.0,29.79,ENE,68,0.0,5.0,87,0.00,,,0.00,weatherlink.com 1.10,2013-02-24 11:07:00,
2013-02-24 06:22:00,34.3,31.0,29.80,ENE,67,0.0,2.0,88,0.00,,,0.00,weatherlink.com 1.10,2013-02-24 11:22:00,
2013-02-24 06:37:00,34.1,31.0,29.80,ENE,67,0.0,0.0,89,0.00,,,0.00,weatherlink.com 1.10,2013-02-24 11:37:00,
2013-02-24 06:52:00,33.6,31.0,29.80,ENE,67,0.0,0.0,90,0.00,,,0.00,weatherlink.com 1.10,2013-02-24 11:52:00,
2013-02-24 07:07:00,32.9,31.0,29.79,ENE,67,0.0,0.0,92,0.00,,,0.00,weatherlink.com 1.10,2013-02-24 12:07:00,
2013-02-24 07:22:00,32.6,31.0,29.79,ENE,67,0.0,0.0,94,0.00,,,0.00,weatherlink.com 1.10,2013-02-24 12:22:00,
2013-02-24 07:37:00,32.6,31.0,29.79,ENE,67,0.0,0.0,94,0.00,,,0.00,weatherlink.com 1.10,2013-02-24 12:37:00,
2013-02-24 07:52:00,32.6,31.0,29.79,ENE,67,0.0,0.0,94,0.00,,,0.00,weatherlink.com 1.10,2013-02-24 12:52:00,
2013-02-24 08:07:00,32.6,31.0,29.78,ENE,67,0.0,0.0,95,0.00,,,0.00,weatherlink.com 1.10,2013-02-24 13:07:00,
2013-02-24 08:22:00,32.7,32.0,29.78,ENE,67,0.0,1.0,95,0.00,,,0.00,weatherlink.com 1.10,2013-02-24 13:22:00,
2013-02-24 08:37:00,32.8,32.0,29.79,ENE,67,0.0,0.0,95,0.00,,,0.00,weatherlink.com 1.10,2013-02-24 13:37:00,
2013-02-24 08:52:00,33.0,32.0,29.78,ENE,67,0.0,0.0,95,0.00,,,0.00,weatherlink.com 1.10,2013-02-24 13:52:00,
2013-02-24 09:07:00,33.5,32.0,29.78,ENE,67,0.0,0.0,95,0.00,,,0.00,weatherlink.com 1.10,2013-02-24 14:07:00,
2013-02-24 09:22:00,33.3,32.0,29.78,ENE,68,0.0,1.0,94,0.00,,,0.00,weatherlink.com 1.10,2013-02-24 14:22:00,
2013-02-24 09:37:00,33.4,32.0,29.77,ENE,68,0.0,0.0,95,0.00,,,0.00,weatherlink.com 1.10,2013-02-24 14:37:00,
2013-02-24 09:52:00,33.8,33.0,29.77,ENE,68,0.0,0.0,95,0.00,,,0.00,weatherlink.com 1.10,2013-02-24 14:52:00,
2013-02-24 10:07:00,34.6,33.0,29.77,SE,132,0.0,2.0,95,0.00,,,0.00,weatherlink.com 1.10,2013-02-24 15:07:00,
2013-02-24 10:22:00,36.0,35.0,29.76,SSE,168,1.0,3.0,94,0.01,,,0.01,weatherlink.com 1.10,2013-02-24 15:22:00,
2013-02-24 10:37:00,36.7,34.0,29.76,South,182,1.0,3.0,91,0.01,,,0.01,weatherlink.com 1.10,2013-02-24 15:37:00,
2013-02-24 10:52:00,37.0,34.0,29.76,South,183,0.0,2.0,90,0.02,,,0.02,weatherlink.com 1.10,2013-02-24 15:52:00,
2013-02-24 11:07:00,37.1,35.0,29.76,South,186,2.0,3.0,90,0.02,,,0.02,weatherlink.com 1.10,2013-02-24 16:07:00,
2013-02-24 11:22:00,37.1,35.0,29.75,South,184,0.0,2.0,90,0.01,,,0.02,weatherlink.com 1.10,2013-02-24 16:22:00,
2013-02-24 11:37:00,37.0,34.0,29.76,South,184,0.0,3.0,90,0.02,,,0.03,weatherlink.com 1.10,2013-02-24 16:37:00,
2013-02-24 11:52:00,37.0,34.0,29.75,SSW,192,3.0,5.0,90,0.01,,,0.03,weatherlink.com 1.10,2013-02-24 16:52:00,
2013-02-24 12:08:00,37.2,34.0,29.75,SSW,213,0.0,4.0,89,0.01,,,0.03,weatherlink.com 1.10,2013-02-24 17:08:00,
2013-02-24 12:23:00,36.7,34.0,29.75,SSW,205,1.0,4.0,90,0.02,,,0.04,weatherlink.com 1.10,2013-02-24 17:23:00,
2013-02-24 12:38:00,36.3,34.0,29.75,South,187,0.0,4.0,91,0.01,,,0.04,weatherlink.com 1.10,2013-02-24 17:38:00,
2013-02-24 12:53:00,36.0,34.0,29.75,SSW,213,0.0,2.0,91,0.01,,,0.04,weatherlink.com 1.10,2013-02-24 17:53:00,
2013-02-24 13:08:00,35.8,34.0,29.75,SSW,194,0.0,4.0,92,0.02,,,0.05,weatherlink.com 1.10,2013-02-24 18:08:00,
2013-02-24 13:23:00,35.7,34.0,29.75,South,188,0.0,3.0,92,0.01,,,0.05,weatherlink.com 1.10,2013-02-24 18:23:00,
2013-02-24 13:38:00,35.6,34.0,29.74,South,190,0.0,5.0,92,0.02,,,0.06,weatherlink.com 1.10,2013-02-24 18:38:00,
2013-02-24 13:53:00,35.2,33.0,29.74,SSW,193,2.0,4.0,92,0.02,,,0.06,weatherlink.com 1.10,2013-02-24 18:53:00,
2013-02-24 14:08:00,34.6,33.0,29.75,SSW,209,3.0,6.0,92,0.01,,,0.06,weatherlink.com 1.10,2013-02-24 19:08:00,
2013-02-24 14:23:00,33.9,32.0,29.75,South,190,3.0,8.0,93,0.02,,,0.07,weatherlink.com 1.10,2013-02-24 19:23:00,
2013-02-24 14:38:00,33.6,32.0,29.76,SSE,163,2.0,7.0,93,0.01,,,0.07,weatherlink.com 1.10,2013-02-24 19:38:00,
2013-02-24 14:53:00,33.4,32.0,29.76,WSW,238,4.0,12.0,93,0.01,,,0.07,weatherlink.com 1.10,2013-02-24 19:53:00,
2013-02-24 15:08:00,32.8,31.0,29.77,South,180,1.0,8.0,92,0.01,,,0.07,weatherlink.com 1.10,2013-02-24 20:08:00,
2013-02-24 15:23:00,32.4,31.0,29.77,SSE,164,4.0,9.0,93,0.00,,,0.07,weatherlink.com 1.10,2013-02-24 20:23:00,
2013-02-24 15:38:00,31.7,30.0,29.78,SE,132,4.0,9.0,92,0.00,,,0.07,weatherlink.com 1.10,2013-02-24 20:38:00,
2013-02-24 15:53:00,31.5,30.0,29.78,SSW,194,0.0,5.0,93,0.00,,,0.07,weatherlink.com 1.10,2013-02-24 20:53:00,
2013-02-24 16:08:00,31.6,30.0,29.79,South,186,0.0,5.0,94,0.00,,,0.07,weatherlink.com 1.10,2013-02-24 21:08:00,
2013-02-24 16:23:00,31.5,30.0,29.79,South,188,0.0,5.0,93,0.00,,,0.07,weatherlink.com 1.10,2013-02-24 21:23:00,
2013-02-24 16:38:00,31.4,30.0,29.80,SSW,210,1.0,3.0,93,0.00,,,0.07,weatherlink.com 1.10,2013-02-24 21:38:00,
2013-02-24 16:53:00,31.4,29.0,29.80,South,180,0.0,3.0,92,0.00,,,0.07,weatherlink.com 1.10,2013-02-24 21:53:00,
2013-02-24 17:08:00,31.4,29.0,29.80,SSE,166,1.0,4.0,92,0.00,,,0.07,weatherlink.com 1.10,2013-02-24 22:08:00,
2013-02-24 17:23:00,31.4,29.0,29.80,SSW,200,0.0,2.0,92,0.00,,,0.07,weatherlink.com 1.10,2013-02-24 22:23:00,
2013-02-24 17:38:00,31.2,29.0,29.81,South,169,0.0,3.0,93,0.00,,,0.07,weatherlink.com 1.10,2013-02-24 22:38:00,
2013-02-24 17:53:00,31.1,29.0,29.81,South,180,0.0,3.0,92,0.00,,,0.07,weatherlink.com 1.10,2013-02-24 22:53:00,
2013-02-24 18:08:00,31.1,29.0,29.82,South,175,1.0,5.0,92,0.00,,,0.07,weatherlink.com 1.10,2013-02-24 23:08:00,
2013-02-24 18:23:00,31.1,29.0,29.83,South,180,0.0,5.0,93,0.00,,,0.07,weatherlink.com 1.10,2013-02-24 23:23:00,
2013-02-24 18:39:00,31.0,29.0,29.84,South,177,0.0,5.0,93,0.00,,,0.07,weatherlink.com 1.10,2013-02-24 23:39:00,
2013-02-24 18:53:00,30.8,29.0,29.85,SSE,167,1.0,3.0,93,0.00,,,0.07,weatherlink.com 1.10,2013-02-24 23:53:00,
2013-02-24 19:23:00,30.8,29.0,29.86,South,173,0.0,4.0,92,0.00,,,0.07,weatherlink.com 1.10,2013-02-25 00:23:00,
2013-02-24 19:38:00,30.7,29.0,29.86,South,172,3.0,3.0,93,0.00,,,0.07,weatherlink.com 1.10,2013-02-25 00:38:00,
2013-02-24 19:53:00,30.6,29.0,29.87,South,178,0.0,2.0,93,0.00,,,0.07,weatherlink.com 1.10,2013-02-25 00:53:00,
2013-02-24 20:08:00,30.6,29.0,29.88,South,171,0.0,2.0,93,0.00,,,0.07,weatherlink.com 1.10,2013-02-25 01:08:00,
2013-02-24 20:23:00,30.5,29.0,29.88,South,183,0.0,3.0,93,0.00,,,0.07,weatherlink.com 1.10,2013-02-25 01:23:00,
2013-02-24 20:38:00,30.5,29.0,29.88,SSE,167,0.0,2.0,93,0.00,,,0.07,weatherlink.com 1.10,2013-02-25 01:38:00,
2013-02-24 20:53:00,30.5,29.0,29.89,South,170,0.0,2.0,94,0.00,,,0.07,weatherlink.com 1.10,2013-02-25 01:53:00,
2013-02-24 21:08:00,30.5,29.0,29.89,South,170,0.0,1.0,94,0.00,,,0.07,weatherlink.com 1.10,2013-02-25 02:08:00,
2013-02-24 21:23:00,30.5,29.0,29.89,South,171,0.0,1.0,94,0.00,,,0.07,weatherlink.com 1.10,2013-02-25 02:23:00,
2013-02-24 21:38:00,30.4,29.0,29.89,South,172,0.0,2.0,94,0.00,,,0.07,weatherlink.com 1.10,2013-02-25 02:38:00,
2013-02-24 21:53:00,30.5,29.0,29.89,SSW,205,0.0,3.0,94,0.00,,,0.07,weatherlink.com 1.10,2013-02-25 02:53:00,
2013-02-24 22:08:00,30.5,29.0,29.90,SSE,165,0.0,2.0,94,0.00,,,0.07,weatherlink.com 1.10,2013-02-25 03:08:00,
2013-02-24 22:23:00,30.5,29.0,29.90,South,182,0.0,3.0,94,0.00,,,0.07,weatherlink.com 1.10,2013-02-25 03:23:00,
2013-02-24 22:38:00,30.6,29.0,29.90,South,182,0.0,1.0,94,0.00,,,0.07,weatherlink.com 1.10,2013-02-25 03:38:00,
2013-02-24 22:53:00,30.6,29.0,29.90,South,182,0.0,1.0,95,0.00,,,0.07,weatherlink.com 1.10,2013-02-25 03:53:00,
2013-02-24 23:08:00,30.6,29.0,29.91,SSW,193,0.0,1.0,95,0.00,,,0.07,weatherlink.com 1.10,2013-02-25 04:08:00,
2013-02-24 23:23:00,30.6,29.0,29.91,SSE,149,0.0,1.0,95,0.00,,,0.07,weatherlink.com 1.10,2013-02-25 04:23:00,
2013-02-24 23:38:00,30.6,29.0,29.92,SSW,194,0.0,1.0,95,0.00,,,0.07,weatherlink.com 1.10,2013-02-25 04:38:00,
2013-02-24 23:53:00,30.6,29.0,29.92,SSW,194,0.0,1.0,95,0.00,,,0.07,weatherlink.com 1.10,2013-02-25 04:53:00,